Regional Weather Roundup
Issued by NWS

Home | Current Version | Previous Version | Text Only | Print | Product List | Glossary On
Versions: 1 2 3 4 5 6 7 8 9 10 11 12 13 14 15 16 17 18 19 20 21 22 23 24 25 26 27 28 29 30 31 32 33 34 35 36 37 38 39 40 41 42 43 44 45 46 47 48 49 50
000
ASUS43 KDMX 101407
RWRIA

WEATHER ROUNDUP FOR IOWA
NATIONAL WEATHER SERVICE DES MOINES IA
900 AM CDT THU JUL 10 2014

NOTE: "FAIR" INDICATES FEW OR NO CLOUDS BELOW 12,000 FEET WITH NO
SIGNIFICANT WEATHER AND/OR OBSTRUCTIONS TO VISIBILITY.

* - THESE STATIONS ARE NOT NWS STATIONS...THUS NOT UNDER NWS
QUALITY CONTROL.  THEY ALSO DO NOT REPORT WEATHER SUCH
AS PRECIPITATION OR FOG.

IAZ001>003-012>014-020>022-031>034-043>046-101500-
   NORTHWEST IOWA

CITY           SKY/WX    TMP DP  RH WIND       PRES   REMARKS
CARROLL *      CLOUDY    68  61  77 S7        30.09S
CHEROKEE *     MOSUNNY   70  66  88 S6        30.06S
DENISON *      MOSUNNY   70  61  73 S9G20     30.06S
LE MARS *      PTSUNNY   70  64  83 S8        30.05S
ORANGE CITY *  MOSUNNY   72  63  73 S7        30.06R
SHELDON *      MOSUNNY   70  63  78 S9        30.05S
SIOUX CITY     PTSUNNY   68  63  84 SE7       30.04S
SPENCER        SUNNY     70  63  78 S9        30.07R
STORM LAKE *   SUNNY     70  64  83 S13       30.09S
$$

IAZ055>058-069>071-079>083-090>094-101500-
   SOUTHWEST IOWA

CITY           SKY/WX    TMP DP  RH WIND       PRES   REMARKS
ATLANTIC *     MOSUNNY   70  61  73 S7G13     30.08S
AUDUBON *      MOSUNNY   70  64  83 S6        30.10S
CLARINDA *     PTSUNNY   73  63  68 S8        30.10R
COUNCIL BLFS * MOSUNNY   70  64  83 S14       30.05S
CRESTON *      CLOUDY    68  61  77 S10G17    30.12R
HARLAN  *      SUNNY     70  63  78 S9        30.11S
LAMONI         CLOUDY    69  60  73 SE8       30.12R
RED OAK *      PTSUNNY   72  63  73 S9        30.08S
SHENANDOAH *   PTSUNNY   72  64  78 SE10G17   30.07S
$$

IAZ047>049-059>061-072>074-084-101500-
   CENTRAL IOWA

CITY           SKY/WX    TMP DP  RH WIND       PRES   REMARKS
AMES           MOSUNNY   70  61  73 S9        30.11R
ANKENY *       SUNNY     72  61  68 S7        30.11S
CHARITON *     SUNNY     70  61  73 S10       30.13R
DES MOINES     MOSUNNY   72  60  66 S9        30.11R
GRINNELL*      SUNNY     70  61  73 S7        30.14R
KNOXVILLE *    SUNNY     70  61  73 S8        30.11S
MARSHALLTOWN   SUNNY     71  61  70 S8        30.12R
PELLA *        SUNNY     72  61  68 S8        30.14R
PERRY *          N/A     70  63  78 S8        30.10S
$$

IAZ004>006-015-016-023>025-035-036-101500-
   NORTH CENTRAL IOWA

CITY           SKY/WX    TMP DP  RH WIND       PRES   REMARKS
ALGONA *       SUNNY     70  63  78 S15       30.09R
CLARION *      SUNNY     70  61  73 S10       30.10S
ESTHERVILLE    SUNNY     68  62  81 S12       30.07R HAZE
FORT DODGE *   SUNNY     68  61  77 S9        30.11R
MASON CITY     SUNNY     71  62  73 SW7       30.11R
FOREST CITY *  SUNNY     70  64  83 S8        30.10R
IOWA FALLS *     N/A     70  61  73 S12       30.12S
$$

IAZ007>011-017>019-026>030-037>042-050>054-066-101500-
   NORTHEAST IOWA

CITY           SKY/WX    TMP DP  RH WIND       PRES   REMARKS
CEDAR RAPIDS   SUNNY     70  60  70 S8        30.13R
CHARLES CITY * PTSUNNY   68  63  83 S7        30.12S
CLINTON *      SUNNY     70  57  64 S9        30.18R
DECORAH *        N/A    N/A N/A N/A MISG        N/A
DUBUQUE        PTSUNNY   68  60  75 S8        30.15R
MONTICELLO *   MOSUNNY   68  63  83 SE5       30.15R
OELWEIN *      SUNNY     70  70 100 SW8       30.14R
WATERLOO       PTSUNNY   72  58  61 SW12      30.11R
$$

IAZ064-065-067-068-078-101500-
   EAST CENTRAL IOWA

CITY           SKY/WX    TMP DP  RH WIND       PRES   REMARKS
DAVENPORT      SUNNY     70  60  70 S7        30.16R
IOWA CITY      SUNNY     70  62  76 S5        30.15R
MT. PLEASANT * SUNNY     72  61  68 S5        30.15R
MUSCATINE *    SUNNY     70  63  78 CALM      30.16R
QUAD CITIES    SUNNY     70  60  70 S6        30.15R
$$

IAZ062-063-075>077-085>089-095>099-101500-
   SOUTHEAST IOWA

CITY           SKY/WX    TMP DP  RH WIND       PRES   REMARKS
BURLINGTON     SUNNY     72  61  68 S5        30.15R
FAIRFIELD *    SUNNY     70  61  73 S8        30.15R
FORT MADISON * SUNNY     73  63  68 S8        30.16R
KEOKUK *       SUNNY     73  61  64 S7        30.15R
OSKALOOSA *    PTSUNNY   68  63  83 S7        30.14S
CENTERVILLE *  SUNNY     68  63  83 S6        30.15S
OTTUMWA        SUNNY     69  61  75 S8        30.14R
WASHINGTON *   SUNNY     72  63  73 SW8       30.15R
$$

ABBREVIATIONS USED IN REMARKS
   TC - TEMPERATURES IN CELSIUS
  WCI - WIND CHILL INDEX
   HX - HEAT INDEX
  VSB - VISIBILITY
$$



USA.gov is the U.S. government's official web portal to all federal, state and local government web resources and services.